CW0172 Weather Reports


Display with metric or nautical units.
time (UTC)temp
F
wind
direction
speed
MPH
gust
MPH
rain 1hr
in
rain 24hr
in
rain mn
in
humidity
%
barometer
mb
20260504034535 48 252 0.0 5.0 0.00 0.01 0.01 50 1021.7
20260504033026 47 194 1.0 4.0 0.00 0.01 0.01 50 1021.7
20260504031519 48 138 0.0 2.0 0.00 0.01 0.01 49 1021.7
20260504030118 49 221 0.0 2.0 0.00 0.01 0.01 48 1021.6
20260504024518 49 246 0.0 3.0 0.00 0.01 0.01 47 1021.7
20260504023017 49 143 0.0 2.0 0.00 0.01 0.01 46 1021.7
20260504021516 50 246 0.0 3.0 0.00 0.01 0.01 45 1021.7
20260504020016 51 250 1.0 3.0 0.00 0.01 0.01 44 1021.7
20260504014518 51 265 0.0 3.0 0.00 0.01 0.01 42 1021.6
20260504013015 51 242 0.0 3.0 0.00 0.01 0.01 41 1021.5
20260504011514 51 267 0.0 3.0 0.00 0.01 0.01 41 1021.4
20260504010014 52 250 0.0 2.0 0.00 0.01 0.01 40 1021.2
20260504004513 52 255 0.0 2.0 0.00 0.01 0.01 41 1021.1
20260504003013 53 265 0.0 2.0 0.00 0.01 0.01 38 1020.9
20260504001512 53 285 1.0 4.0 0.00 0.01 0.01 37 1020.7
20260504000011 54 281 0.0 2.0 0.00 0.01 0.01 37 1020.5
20260503234512 55 12 2.0 6.0 0.00 0.01 0.01 36 1020.3
20260503233011 55 261 0.0 4.0 0.00 0.01 0.01 35 1020.2
20260503231515 56 75 2.0 8.0 0.00 0.01 0.01 34 1020.0
20260503230009 56 300 2.0 8.0 0.00 0.01 0.01 34 1019.9
20260503224509 57 78 1.0 6.0 0.00 0.01 0.01 32 1019.8
20260503223020 56 270 1.0 5.0 0.00 0.01 0.01 33 1019.7
20260503221506 57 267 2.0 9.0 0.00 0.01 0.01 32 1019.7
20260503220011 58 340 3.0 8.0 0.00 0.01 0.01 33 1019.6
20260503214505 58 171 2.0 8.0 0.00 0.01 0.01 31 1019.6
20260503213004 57 302 1.0 13.0 0.00 0.01 0.01 31 1019.6
20260503211502 58 282 2.0 8.0 0.00 0.01 0.01 32 1019.6
20260503210002 57 107 3.0 12.0 0.00 0.01 0.01 32 1019.5
20260503204501 57 26 3.0 11.0 0.00 0.01 0.01 34 1019.6
20260503203114 57 231 2.0 10.0 0.00 0.01 0.01 31 1019.6
20260503201557 56 286 3.0 9.0 0.00 0.01 0.01 31 1019.7
20260503200054 55 283 4.0 14.0 0.00 0.01 0.01 32 1019.8
20260503194553 56 9 6.0 17.0 0.00 0.01 0.01 34 1019.7
20260503193052 54 153 2.0 9.0 0.00 0.01 0.01 36 1020.1
20260503191602 54 58 4.0 14.0 0.00 0.01 0.01 39 1020.1
20260503190048 54 49 3.0 13.0 0.00 0.01 0.01 34 1020.2
20260503184605 53 342 3.0 14.0 0.00 0.01 0.01 36 1020.3
20260503183048 53 17 3.0 14.0 0.00 0.01 0.01 41 1020.6
20260503181545 54 252 5.0 11.0 0.00 0.01 0.01 36 1020.4
20260503180041 52 344 2.0 13.0 0.00 0.01 0.01 39 1020.6
20260503174551 52 88 2.0 11.0 0.00 0.01 0.01 42 1020.7
20260503173037 49 296 2.0 12.0 0.00 0.01 0.01 42 1020.9
20260503171537 50 324 4.0 11.0 0.00 0.01 0.01 43 1020.8
20260503081539 41 281 1.0 9.0 0.00 0.01 0.00 59 1019.8
20260503071533 42 338 1.0 6.0 0.00 0.01 0.00 58 1019.6
20260503054514 44 26 0.0 6.0 0.00 0.01 0.00 55 1019.8
20260503053005 44 300 2.0 7.0 0.00 0.01 0.00 54 1020.0
20260503051503 45 10 2.0 6.0 0.00 0.01 0.00 53 1020.1
20260503050103 45 346 2.0 9.0 0.00 0.01 0.00 53 1020.2
20260503044557 45 62 1.0 4.0 0.00 0.01 0.00 52 1020.3
20260503043057 45 13 2.0 4.0 0.00 0.01 0.00 51 1020.5
20260503041553 46 342 1.0 7.0 0.00 0.01 0.00 51 1020.6
20260503040053 46 90 0.0 7.0 0.00 0.01 0.00 50 1020.6